Weather History for EGXV - October, 2012

Change the Weather History Date:

Tuesday, October 16, 2012

  Actual Average Record
Temperature  
Mean Temperature 44 °F -  
Max Temperature 50 °F - - ()
Min Temperature 39 °F - - ()
Degree Days  
Heating Degree Days 20    
Moisture  
Dew Point 42 °F    
Average Humidity 84    
Maximum Humidity 100    
Minimum Humidity 66    
Precipitation  
Precipitation 0.00 in - - ()
Sea Level Pressure  
Sea Level Pressure 29.36 in    
Wind  
Wind Speed 11 mph ()    
Max Wind Speed 28 mph    
Max Gust Speed 43 mph    
Visibility 5.7 miles    
Events Rain    
T = Trace of Precipitation, MM = Missing Value Source: Averaged Metar Reports

Daily Weather History Graph

Daily Weather History Graph

Search for Another Location

Airport or City:

Trip Planner

Search our weather history database for the weather conditions in past years. The results will help you decide how hot, cold, wet, or windy it might be!

Date:

Astronomy

Oct. 16, 2012 Rise Set
Actual Time 7:31 AM BST 6:01 PM BST
Civil Twilight 6:56 AM BST 6:37 PM BST
Nautical Twilight 6:15 AM BST 7:18 PM BST
Astronomical Twilight 5:34 AM BST 7:58 PM BST
Moon 8:54 AM BST (10/16) 6:14 PM BST (10/16)
Length of Visible Light 11h 41m
Length of Day
10h 29m
New Moon, 1% of the Moon is Illuminated
Oct 16
New Moon
Oct 22
First Quarter
Oct 29
Full
Nov 7
Last Quarter
Nov 13
New

Hourly Weather History & Observations

Time (BST) Temp. Windchill Dew Point Humidity Pressure Visibility Wind Dir Wind Speed Gust Speed Precip Events Conditions
12:50 AM 44.6 °F 43.1 °F 44.6 °F 100% 29.39 in 3.7 mi East 3.5 mph - N/A Rain Light Rain
1:50 AM 46.4 °F 44.3 °F 46.4 °F 100% 29.36 in - ESE 4.6 mph - N/A Rain Rain
2:50 AM 48.2 °F - 48.2 °F 100% 29.30 in 2.8 mi SE 8.1 mph - N/A Rain Rain
3:50 AM 48.2 °F - 48.2 °F 100% 29.24 in - SE 9.2 mph - N/A Rain Light Rain
4:50 AM 50.0 °F - 50.0 °F 100% 29.21 in 1.4 mi SSE 8.1 mph - N/A Rain Rain
5:50 AM 50.0 °F - 46.4 °F 87% 29.18 in 6.2 mi WSW 12.7 mph - N/A   Mostly Cloudy
6:50 AM 48.2 °F - 42.8 °F 82% 29.18 in 6.2 mi SW 13.8 mph - N/A   Partly Cloudy
7:50 AM 46.4 °F 40.7 °F 42.8 °F 87% 29.21 in 6.2 mi SW 12.7 mph - N/A   Unknown
8:50 AM 48.2 °F - 42.8 °F 82% 29.21 in 6.2 mi SSW 16.1 mph - N/A   Partly Cloudy
9:50 AM 50.0 °F - 44.6 °F 82% 29.21 in 6.2 mi SW 16.1 mph - N/A   Partly Cloudy
10:50 AM 50.0 °F - 41.0 °F 71% 29.21 in 6.2 mi SW 26.5 mph 39.1 mph N/A   Mostly Cloudy
11:50 AM 50.0 °F - 42.8 °F 76% 29.24 in 6.2 mi WSW 25.3 mph 39.1 mph N/A   Mostly Cloudy
12:50 PM 50.0 °F - 42.8 °F 76% 29.27 in 6.2 mi WSW 26.5 mph 39.1 mph N/A   Mostly Cloudy
1:50 PM 50.0 °F - 41.0 °F 71% 29.33 in 6.2 mi WSW 27.6 mph 41.4 mph N/A   Scattered Clouds
2:50 PM 50.0 °F - 41.0 °F 71% 29.36 in 6.2 mi West 26.5 mph 41.4 mph N/A   Mostly Cloudy
3:50 PM 48.2 °F - 39.2 °F 71% 29.42 in 6.2 mi West 26.5 mph 42.6 mph N/A   Unknown
4:50 PM 50.0 °F - 39.2 °F 66% 29.44 in 6.2 mi West 19.6 mph 31.1 mph N/A   Unknown
5:50 PM 46.4 °F 41.5 °F 39.2 °F 76% 29.50 in 6.2 mi West 10.4 mph - N/A   Unknown
6:50 PM 46.4 °F 42.9 °F 39.2 °F 76% 29.53 in 6.2 mi West 6.9 mph - N/A   Unknown
7:50 PM 42.8 °F 41.1 °F 39.2 °F 87% 29.56 in 6.2 mi South 3.5 mph - N/A   Unknown
8:50 PM 42.8 °F 39.3 °F 39.2 °F 87% 29.56 in 6.2 mi SSW 5.8 mph - N/A   Mostly Cloudy
9:50 PM 42.8 °F 39.3 °F 39.2 °F 87% 29.59 in 6.2 mi SSW 5.8 mph - N/A   Partly Cloudy
10:50 PM 39.2 °F - 37.4 °F 93% 29.59 in 6.2 mi SSW 2.3 mph - N/A   Unknown
11:50 PM 39.2 °F 37.0 °F 37.4 °F 93% 29.56 in 6.2 mi South 3.5 mph - N/A   Unknown